Date String (YYYY-MM-DD hh:mm:ss) UTC,Instrument flags,Ambient pressure (hPa),Sample flow (lpm),Bypass flow (lpm),Sample temperature (°C),Ambient temperature (°C),ASC tube jacket temperature (°C),LED temperature (°C),Box temperature (°C),Sample RH (%),Span deviation,Mass concentration (μg/m³),Mass concentration (μg/m³),Mass concentration (μg/m³)
DateTimeUTC,F1_M11,P_M11,Q1_M11,Q2_M11,T1_M11,T2_M11,T3_M11,T4_M11,T5_M11,U1_M11,ZSPAN_M11,X0_M11,X2_M11,X1_M11
2023-05-13 14:00:00,,0836.0,4.99,0.00,24.7,23.4,00.0,32.8,26.5,31.2,0000.0,0005.04,0002.33,0001.94
2023-05-13 14:01:00,,0836.0,5.00,0.00,24.7,23.4,00.0,32.8,26.4,31.6,0000.0,0005.34,0002.33,0001.94
2023-05-13 14:02:00,,0836.1,5.00,0.00,24.7,23.4,00.0,32.9,26.5,31.5,0000.0,0005.34,0002.33,0001.94
2023-05-13 14:03:00,,0836.1,5.01,0.00,24.7,23.4,00.0,32.9,26.5,30.8,0000.0,0005.35,0002.35,0001.96
2023-05-13 14:04:00,,0836.1,5.00,0.00,24.7,23.5,00.0,32.9,26.5,30.9,0000.0,0005.27,0002.35,0001.96
2023-05-13 14:05:00,,0836.1,5.01,0.00,24.7,23.5,00.0,32.9,26.5,31.2,0000.0,0005.22,0002.35,0001.98
2023-05-13 14:06:00,,0836.1,4.99,0.00,24.8,23.5,00.0,32.9,26.5,31.7,0000.0,0004.46,0002.34,0002.00
2023-05-13 14:07:00,,0836.1,5.00,0.00,24.8,23.5,00.0,32.9,26.5,30.8,0000.0,0004.29,0002.36,0002.02
2023-05-13 14:08:00,,0836.1,5.00,0.00,24.8,23.5,00.0,33.0,26.6,30.0,0000.0,0004.57,0002.40,0002.04
2023-05-13 14:09:00,,0836.1,5.00,0.00,24.8,23.5,00.0,33.0,26.6,30.1,0000.0,0005.28,0002.37,0002.03
2023-05-13 14:10:00,,0836.1,5.01,0.00,24.8,23.6,00.0,33.0,26.6,30.1,0000.0,0005.46,0002.36,0002.02
2023-05-13 14:11:00,,0836.1,5.00,0.00,24.8,23.6,00.0,33.0,26.6,30.3,0000.0,0004.82,0002.33,0002.00
2023-05-13 14:12:00,,0836.0,5.01,0.00,24.9,23.6,00.0,33.0,26.6,30.6,0000.0,0004.70,0002.37,0001.99
2023-05-13 14:13:00,,0836.0,5.00,0.00,24.9,23.6,00.0,33.1,26.6,29.5,0000.0,0004.80,0002.37,0001.97
2023-05-13 14:14:00,,0836.1,4.99,0.00,24.9,23.6,00.0,33.1,26.6,29.5,0000.0,0004.94,0002.41,0001.95
2023-05-13 14:15:00,,0836.1,4.99,0.00,24.9,23.6,00.0,33.1,26.7,29.7,0000.0,0004.96,0002.41,0001.94
2023-05-13 14:16:00,,0836.1,5.00,0.00,24.9,23.7,00.0,33.1,26.7,29.0,0000.0,0004.97,0002.41,0001.92
2023-05-13 14:17:00,,0836.1,5.01,0.00,24.9,23.7,00.0,33.1,26.7,28.2,0000.0,0005.17,0002.42,0001.90
2023-05-13 14:18:00,,0836.1,5.01,0.00,25.0,23.7,00.0,33.1,26.7,28.1,0000.0,0005.36,0002.44,0001.88
2023-05-13 14:19:00,,0836.1,5.00,0.00,25.0,23.7,00.0,33.2,26.7,28.2,0000.0,0005.48,0002.45,0001.87
2023-05-13 14:20:00,,0836.1,5.00,0.00,25.0,23.7,00.0,33.2,26.8,27.5,0000.0,0004.87,0002.48,0001.86
2023-05-13 14:21:00,,0836.1,5.00,0.00,25.0,23.7,00.0,33.2,26.8,27.8,0000.0,0005.15,0002.48,0001.86
2023-05-13 14:22:00,,0836.1,4.99,0.00,25.0,23.8,00.0,33.2,26.8,27.9,0000.0,0006.01,0002.48,0001.86
2023-05-13 14:23:00,,0836.1,5.01,0.00,25.0,23.8,00.0,33.2,26.8,28.4,0000.0,0006.91,0002.46,0001.84
2023-05-13 14:24:00,,0836.0,5.00,0.00,25.1,23.8,00.0,33.2,26.8,26.5,0000.0,0006.82,0002.45,0001.84
2023-05-13 14:25:00,,0835.9,5.00,0.00,25.1,23.8,00.0,33.3,26.8,27.3,0000.0,0006.99,0002.43,0001.83
2023-05-13 14:26:00,,0835.9,5.01,0.00,25.1,23.8,00.0,33.3,26.8,27.4,0000.0,0007.40,0002.51,0001.84
2023-05-13 14:27:00,,0835.9,4.99,0.00,25.1,23.8,00.0,33.3,26.8,26.8,0000.0,0007.66,0002.57,0001.85
2023-05-13 14:28:00,,0835.9,5.00,0.00,25.1,23.8,00.0,33.3,26.9,26.6,0000.0,0007.64,0002.54,0001.85
2023-05-13 14:29:00,,0836.0,5.01,0.00,25.1,23.9,00.0,33.3,26.9,26.7,0000.0,0007.53,0002.52,0001.85
2023-05-13 14:30:00,,0836.0,5.01,0.00,25.1,23.9,00.0,33.3,26.9,26.8,0000.0,0007.42,0002.50,0001.85
2023-05-13 14:31:00,,0836.0,5.01,0.00,25.2,23.9,00.0,33.4,26.9,27.1,0000.0,0007.56,0002.49,0001.86
2023-05-13 14:32:00,,0836.0,5.00,0.00,25.2,23.9,00.0,33.4,26.9,27.1,0000.0,0008.34,0002.52,0001.85
2023-05-13 14:33:00,,0836.1,5.00,0.00,25.2,23.9,00.0,33.4,26.9,27.4,0000.0,0008.19,0002.54,0001.87
2023-05-13 14:34:00,,0836.1,4.99,0.00,25.2,23.9,00.0,33.4,26.9,27.6,0000.0,0007.70,0002.63,0001.90
2023-05-13 14:35:00,,0836.1,4.99,0.00,25.2,23.9,00.0,33.4,27.0,28.0,0000.0,0007.76,0002.70,0001.94
2023-05-13 14:36:00,,0836.1,5.00,0.00,25.2,23.9,00.0,33.4,27.0,27.8,0000.0,0007.75,0002.75,0001.97
2023-05-13 14:37:00,,0836.1,5.00,0.00,25.3,24.0,00.0,33.4,27.0,27.5,0000.0,0007.59,0002.71,0001.97
2023-05-13 14:38:00,,0836.1,5.00,0.00,25.3,24.0,00.0,33.5,27.0,27.8,0000.0,0007.36,0002.67,0001.96
2023-05-13 14:39:00,,0836.1,5.00,0.00,25.3,24.0,00.0,33.5,27.0,27.7,0000.0,0007.50,0002.74,0001.98
2023-05-13 14:40:00,,0836.1,5.00,0.00,25.3,24.0,00.0,33.5,27.0,27.1,0000.0,0007.60,0002.77,0002.00
2023-05-13 14:41:00,,0836.0,5.01,0.00,25.3,24.0,00.0,33.5,27.0,27.5,0000.0,0007.69,0002.77,0002.01
2023-05-13 14:42:00,,0836.0,5.00,0.00,25.3,24.0,00.0,33.5,27.0,27.1,0000.0,0008.22,0002.81,0002.02
2023-05-13 14:43:00,,0836.0,4.99,0.00,25.3,24.0,00.0,33.5,27.0,26.8,0000.0,0007.34,0002.79,0002.04
2023-05-13 14:44:00,,0836.0,5.00,0.00,25.3,24.0,00.0,33.5,27.1,27.3,0000.0,0007.18,0002.82,0002.04
2023-05-13 14:45:00,,0836.0,5.01,0.00,25.3,24.0,00.0,33.6,27.1,27.4,0000.0,0006.94,0002.80,0002.04
2023-05-13 14:46:00,,0836.1,5.00,0.00,25.4,24.0,00.0,33.6,27.1,27.6,0000.0,0006.95,0002.75,0002.04
2023-05-13 14:47:00,,0836.1,5.00,0.00,25.4,24.1,00.0,33.6,27.1,26.8,0000.0,0007.24,0002.73,0002.01
2023-05-13 14:48:00,,0836.1,5.01,0.00,25.4,24.1,00.0,33.6,27.1,25.3,0000.0,0006.99,0002.66,0001.98
2023-05-13 14:49:00,,0836.1,5.00,0.00,25.4,24.1,00.0,33.6,27.1,26.4,0000.0,0006.88,0002.64,0001.97
2023-05-13 14:50:00,,0836.1,5.00,0.00,25.4,24.1,00.0,33.6,27.1,26.6,0000.0,0006.56,0002.57,0001.96
2023-05-13 14:51:00,,0836.1,5.00,0.00,25.4,24.1,00.0,33.6,27.1,26.7,0000.0,0006.18,0002.49,0001.95
2023-05-13 14:52:00,,0836.1,5.00,0.00,25.4,24.1,00.0,33.7,27.2,26.7,0000.0,0006.50,0002.54,0001.94
2023-05-13 14:53:00,,0836.1,4.99,0.00,25.4,24.1,00.0,33.7,27.1,25.4,0000.0,0006.11,0002.49,0001.91
2023-05-13 14:54:00,,0836.1,4.99,0.00,25.5,24.1,00.0,33.7,27.2,25.8,0000.0,0006.02,0002.49,0001.87
2023-05-13 14:55:00,,0836.1,5.00,0.00,25.5,24.1,00.0,33.7,27.2,25.7,0000.0,0005.31,0002.44,0001.84
2023-05-13 14:56:00,,0836.1,5.00,0.00,25.5,24.1,00.0,33.7,27.2,26.1,0000.0,0005.03,0002.32,0001.78
2023-05-13 14:57:00,,0836.2,5.00,0.00,25.5,24.2,00.0,33.7,27.2,26.5,0000.0,0004.96,0002.26,0001.73
2023-05-13 14:58:00,,0836.1,5.00,0.00,25.5,24.2,00.0,33.7,27.2,25.5,0000.0,0004.37,0002.17,0001.69
2023-05-13 14:59:00,,0836.1,5.00,0.00,25.5,24.2,00.0,33.7,27.2,25.6,0000.0,0004.27,0002.15,0001.68
